Time,TemperatureF,DewpointF,PressureIn,WindDirection,WindDirectionDegrees,WindSpeedMPH,WindSpeedGustMPH,Humidity,HourlyPrecipIn,Conditions,Clouds,dailyrainin,SolarRadiationWatts/m^2,SoftwareType,DateUTC
2015-07-31 00:00:00,69.6,63.2,30.02,SE,128,2.0,-999.0,80,0.00,,,0.00,0,WeatherHawk,2015-07-31 07:00:00,
2015-07-31 00:05:00,69.6,63.2,30.02,WSW,240,1.0,-999.0,80,0.00,,,0.00,0,WeatherHawk,2015-07-31 07:05:00,
2015-07-31 00:10:00,69.6,63.2,30.01,West,267,2.0,-999.0,80,0.00,,,0.00,1,WeatherHawk,2015-07-31 07:10:00,
2015-07-31 00:15:00,69.8,63.3,30.02,SSW,198,2.0,-999.0,80,0.00,,,0.00,0,WeatherHawk,2015-07-31 07:15:00,
2015-07-31 00:20:00,69.8,63.3,30.02,SSE,159,2.0,-999.0,80,0.00,,,0.00,0,WeatherHawk,2015-07-31 07:20:00,
2015-07-31 00:25:00,69.6,63.2,30.01,SW,222,2.0,-999.0,80,0.00,,,0.00,2,WeatherHawk,2015-07-31 07:25:00,
2015-07-31 00:30:00,69.4,63.0,30.01,South,181,3.0,-999.0,80,0.00,,,0.00,0,WeatherHawk,2015-07-31 07:30:00,
2015-07-31 00:35:00,69.4,63.3,30.01,South,173,1.0,-999.0,81,0.00,,,0.00,1,WeatherHawk,2015-07-31 07:35:00,
2015-07-31 00:40:00,69.4,63.3,30.01,SW,230,4.0,-999.0,81,0.00,,,0.00,0,WeatherHawk,2015-07-31 07:40:00,
2015-07-31 00:45:00,69.4,63.3,30.01,SW,218,3.0,-999.0,81,0.00,,,0.00,0,WeatherHawk,2015-07-31 07:45:00,
2015-07-31 00:50:00,69.4,63.3,30.01,South,180,2.0,-999.0,81,0.00,,,0.00,0,WeatherHawk,2015-07-31 07:50:00,
2015-07-31 00:55:00,69.4,63.3,30.01,SW,215,1.0,-999.0,81,0.00,,,0.00,1,WeatherHawk,2015-07-31 07:55:00,
2015-07-31 01:00:00,69.4,63.3,30.01,SSW,193,3.0,-999.0,81,0.00,,,0.00,0,WeatherHawk,2015-07-31 08:00:00,
2015-07-31 01:05:00,69.4,63.3,30.01,SSE,158,2.0,-999.0,81,0.00,,,0.00,1,WeatherHawk,2015-07-31 08:05:00,
2015-07-31 01:10:00,69.6,63.5,30.02,SW,222,2.0,-999.0,81,0.00,,,0.00,0,WeatherHawk,2015-07-31 08:10:00,
2015-07-31 01:15:00,69.8,63.3,30.01,SW,234,1.0,-999.0,80,0.00,,,0.00,0,WeatherHawk,2015-07-31 08:15:00,
2015-07-31 01:20:00,69.8,63.3,30.01,WSW,253,1.0,-999.0,80,0.00,,,0.00,0,WeatherHawk,2015-07-31 08:20:00,
2015-07-31 01:25:00,69.8,63.3,30.01,South,180,2.0,-999.0,80,0.00,,,0.00,1,WeatherHawk,2015-07-31 08:25:00,
2015-07-31 01:30:00,69.8,63.3,30.01,SW,220,2.0,-999.0,80,0.00,,,0.00,0,WeatherHawk,2015-07-31 08:30:00,
2015-07-31 01:35:00,69.8,63.3,30.01,SW,222,3.0,-999.0,80,0.00,,,0.00,0,WeatherHawk,2015-07-31 08:35:00,
2015-07-31 01:40:00,69.6,63.2,30.01,South,190,3.0,-999.0,80,0.00,,,0.00,0,WeatherHawk,2015-07-31 08:40:00,
2015-07-31 01:45:00,69.6,63.2,30.01,SSW,206,1.0,-999.0,80,0.00,,,0.00,0,WeatherHawk,2015-07-31 08:45:00,
2015-07-31 01:50:00,69.8,63.3,30.01,ESE,123,2.0,-999.0,80,0.00,,,0.00,1,WeatherHawk,2015-07-31 08:50:00,
2015-07-31 01:55:00,69.8,63.3,30.01,South,183,0.0,-999.0,80,0.00,,,0.00,0,WeatherHawk,2015-07-31 08:55:00,
2015-07-31 02:00:00,69.8,63.3,30.00,South,191,2.0,-999.0,80,0.00,,,0.00,2,WeatherHawk,2015-07-31 09:00:00,
2015-07-31 02:05:00,69.8,63.3,30.00,South,191,1.0,-999.0,80,0.00,,,0.00,0,WeatherHawk,2015-07-31 09:05:00,
2015-07-31 02:10:00,69.6,63.2,30.00,SW,217,3.0,-999.0,80,0.00,,,0.00,0,WeatherHawk,2015-07-31 09:10:00,
2015-07-31 02:15:00,69.6,63.2,30.00,SSW,198,4.0,-999.0,80,0.00,,,0.00,0,WeatherHawk,2015-07-31 09:15:00,
2015-07-31 02:20:00,69.6,63.5,30.00,SSW,213,2.0,-999.0,81,0.00,,,0.00,0,WeatherHawk,2015-07-31 09:20:00,
2015-07-31 02:25:00,69.6,63.5,30.00,WSW,240,2.0,-999.0,81,0.00,,,0.00,0,WeatherHawk,2015-07-31 09:25:00,
2015-07-31 02:30:00,69.6,63.2,30.00,SW,215,2.0,-999.0,80,0.00,,,0.00,0,WeatherHawk,2015-07-31 09:30:00,
2015-07-31 02:35:00,69.6,63.5,30.00,South,176,2.0,-999.0,81,0.00,,,0.00,0,WeatherHawk,2015-07-31 09:35:00,
2015-07-31 02:40:00,69.8,63.3,30.00,East,90,1.0,-999.0,80,0.00,,,0.00,0,WeatherHawk,2015-07-31 09:40:00,
2015-07-31 02:45:00,69.8,63.3,30.00,South,179,2.0,-999.0,80,0.00,,,0.00,0,WeatherHawk,2015-07-31 09:45:00,
2015-07-31 02:50:00,69.8,63.3,30.00,East,92,1.0,-999.0,80,0.00,,,0.00,0,WeatherHawk,2015-07-31 09:50:00,
2015-07-31 02:55:00,69.8,63.3,30.00,North,1,0.0,-999.0,80,0.00,,,0.00,0,WeatherHawk,2015-07-31 09:55:00,
2015-07-31 03:00:00,69.8,63.3,29.99,NNW,348,2.0,-999.0,80,0.00,,,0.00,0,WeatherHawk,2015-07-31 10:00:00,
2015-07-31 03:05:00,69.8,63.3,29.99,ENE,74,0.0,-999.0,80,0.00,,,0.00,0,WeatherHawk,2015-07-31 10:05:00,
2015-07-31 03:10:00,69.8,63.3,29.99,ESE,108,1.0,-999.0,80,0.00,,,0.00,0,WeatherHawk,2015-07-31 10:10:00,
2015-07-31 03:15:00,69.8,63.3,29.99,NW,323,2.0,-999.0,80,0.00,,,0.00,1,WeatherHawk,2015-07-31 10:15:00,
2015-07-31 03:20:00,69.8,63.3,29.99,NNW,345,1.0,-999.0,80,0.00,,,0.00,0,WeatherHawk,2015-07-31 10:20:00,
2015-07-31 03:25:00,69.8,63.3,29.99,WSW,241,1.0,-999.0,80,0.00,,,0.00,0,WeatherHawk,2015-07-31 10:25:00,
2015-07-31 03:30:00,69.8,63.3,29.99,NNE,24,2.0,-999.0,80,0.00,,,0.00,0,WeatherHawk,2015-07-31 10:30:00,
2015-07-31 03:35:00,69.8,63.3,29.99,East,91,0.0,-999.0,80,0.00,,,0.00,0,WeatherHawk,2015-07-31 10:35:00,
2015-07-31 03:40:00,69.8,63.3,29.99,NNW,335,1.0,-999.0,80,0.00,,,0.00,1,WeatherHawk,2015-07-31 10:40:00,
2015-07-31 03:45:00,69.8,63.3,29.99,NNW,328,2.0,-999.0,80,0.00,,,0.00,1,WeatherHawk,2015-07-31 10:45:00,
2015-07-31 03:50:00,69.8,63.7,29.99,NE,37,0.0,-999.0,81,0.00,,,0.00,0,WeatherHawk,2015-07-31 10:50:00,
2015-07-31 03:55:00,69.8,63.7,29.99,NNW,330,1.0,-999.0,81,0.00,,,0.00,1,WeatherHawk,2015-07-31 10:55:00,
2015-07-31 04:00:00,69.8,63.7,29.99,NNW,327,1.0,-999.0,81,0.00,,,0.00,0,WeatherHawk,2015-07-31 11:00:00,
2015-07-31 04:05:00,69.8,63.7,29.99,North,350,2.0,-999.0,81,0.00,,,0.00,0,WeatherHawk,2015-07-31 11:05:00,
2015-07-31 04:10:00,69.6,63.5,29.99,North,11,4.0,-999.0,81,0.00,,,0.00,1,WeatherHawk,2015-07-31 11:10:00,
2015-07-31 04:15:00,69.6,63.9,29.99,NNE,24,3.0,-999.0,82,0.00,,,0.00,0,WeatherHawk,2015-07-31 11:15:00,
2015-07-31 04:20:00,69.6,63.9,29.99,ESE,120,1.0,-999.0,82,0.00,,,0.00,0,WeatherHawk,2015-07-31 11:20:00,
2015-07-31 04:25:00,69.8,63.7,29.99,East,84,2.0,-999.0,81,0.00,,,0.00,0,WeatherHawk,2015-07-31 11:25:00,
2015-07-31 04:30:00,69.8,63.7,29.99,ESE,107,2.0,-999.0,81,0.00,,,0.00,0,WeatherHawk,2015-07-31 11:30:00,
2015-07-31 04:35:00,69.8,63.7,29.99,East,83,3.0,-999.0,81,0.00,,,0.00,2,WeatherHawk,2015-07-31 11:35:00,
2015-07-31 04:40:00,69.8,63.7,29.99,NE,40,1.0,-999.0,81,0.00,,,0.00,0,WeatherHawk,2015-07-31 11:40:00,
2015-07-31 04:45:00,69.8,63.7,29.99,North,356,2.0,-999.0,81,0.00,,,0.00,0,WeatherHawk,2015-07-31 11:45:00,
2015-07-31 04:50:00,69.8,63.7,29.99,NW,325,2.0,-999.0,81,0.00,,,0.00,0,WeatherHawk,2015-07-31 11:50:00,
2015-07-31 04:55:00,69.8,63.7,29.99,North,352,3.0,-999.0,81,0.00,,,0.00,0,WeatherHawk,2015-07-31 11:55:00,
2015-07-31 05:00:00,69.8,63.7,29.98,NNW,336,2.0,-999.0,81,0.00,,,0.00,0,WeatherHawk,2015-07-31 12:00:00,
2015-07-31 05:05:00,69.8,63.7,29.98,WNW,291,1.0,-999.0,81,0.00,,,0.00,0,WeatherHawk,2015-07-31 12:05:00,
2015-07-31 05:10:00,70.0,63.9,29.99,NW,309,3.0,-999.0,81,0.00,,,0.00,1,WeatherHawk,2015-07-31 12:10:00,
2015-07-31 05:15:00,70.0,63.5,29.99,North,349,2.0,-999.0,80,0.00,,,0.00,0,WeatherHawk,2015-07-31 12:15:00,
2015-07-31 05:20:00,69.8,63.7,29.99,SSW,195,1.0,-999.0,81,0.00,,,0.00,0,WeatherHawk,2015-07-31 12:20:00,
2015-07-31 05:25:00,69.8,63.7,29.99,ENE,70,2.0,-999.0,81,0.00,,,0.00,0,WeatherHawk,2015-07-31 12:25:00,
2015-07-31 05:30:00,69.8,63.7,29.99,SE,140,2.0,-999.0,81,0.00,,,0.00,0,WeatherHawk,2015-07-31 12:30:00,
2015-07-31 05:35:00,69.8,63.7,29.99,ESE,117,2.0,-999.0,81,0.00,,,0.00,0,WeatherHawk,2015-07-31 12:35:00,
2015-07-31 05:40:00,69.8,63.7,30.00,SSE,163,1.0,-999.0,81,0.00,,,0.00,2,WeatherHawk,2015-07-31 12:40:00,
2015-07-31 05:45:00,69.8,63.7,30.00,South,171,2.0,-999.0,81,0.00,,,0.00,2,WeatherHawk,2015-07-31 12:45:00,
2015-07-31 05:50:00,69.8,63.7,30.00,SE,135,1.0,-999.0,81,0.00,,,0.00,0,WeatherHawk,2015-07-31 12:50:00,
2015-07-31 05:55:00,69.8,63.7,30.00,SSE,148,1.0,-999.0,81,0.00,,,0.00,0,WeatherHawk,2015-07-31 12:55:00,
2015-07-31 06:00:00,69.8,63.7,30.00,SSE,157,1.0,-999.0,81,0.00,,,0.00,0,WeatherHawk,2015-07-31 13:00:00,
2015-07-31 06:05:00,69.8,63.7,30.00,SSW,212,2.0,-999.0,81,0.00,,,0.00,1,WeatherHawk,2015-07-31 13:05:00,
2015-07-31 06:10:00,69.8,63.7,30.00,SSW,198,3.0,-999.0,81,0.00,,,0.00,2,WeatherHawk,2015-07-31 13:10:00,
2015-07-31 06:15:00,69.8,63.7,30.00,South,170,1.0,-999.0,81,0.00,,,0.00,4,WeatherHawk,2015-07-31 13:15:00,
2015-07-31 06:20:00,70.0,63.9,30.01,South,178,0.0,-999.0,81,0.00,,,0.00,9,WeatherHawk,2015-07-31 13:20:00,
2015-07-31 06:25:00,70.0,63.9,30.00,East,95,0.0,-999.0,81,0.00,,,0.00,11,WeatherHawk,2015-07-31 13:25:00,
2015-07-31 06:30:00,70.2,64.0,30.01,SSW,206,2.0,-999.0,81,0.00,,,0.00,11,WeatherHawk,2015-07-31 13:30:00,
2015-07-31 06:35:00,70.2,63.7,30.01,SSW,206,2.0,-999.0,80,0.00,,,0.00,19,WeatherHawk,2015-07-31 13:35:00,
2015-07-31 06:40:00,70.2,63.7,30.01,ESE,114,1.0,-999.0,80,0.00,,,0.00,33,WeatherHawk,2015-07-31 13:40:00,
2015-07-31 06:45:00,70.3,63.9,30.01,SSW,201,2.0,-999.0,80,0.00,,,0.00,39,WeatherHawk,2015-07-31 13:45:00,
2015-07-31 06:50:00,70.2,63.7,30.01,SSW,212,3.0,-999.0,80,0.00,,,0.00,44,WeatherHawk,2015-07-31 13:50:00,
2015-07-31 06:55:00,70.2,63.7,30.01,South,175,3.0,-999.0,80,0.00,,,0.00,50,WeatherHawk,2015-07-31 13:55:00,
2015-07-31 07:00:00,70.2,63.7,30.01,South,185,3.0,-999.0,80,0.00,,,0.00,57,WeatherHawk,2015-07-31 14:00:00,
2015-07-31 07:05:00,70.3,63.9,30.02,SW,226,1.0,-999.0,80,0.00,,,0.00,65,WeatherHawk,2015-07-31 14:05:00,
2015-07-31 07:10:00,70.3,63.9,30.02,SW,228,0.0,-999.0,80,0.00,,,0.00,71,WeatherHawk,2015-07-31 14:10:00,
2015-07-31 07:15:00,70.7,64.2,30.02,SSE,154,1.0,-999.0,80,0.00,,,0.00,78,WeatherHawk,2015-07-31 14:15:00,
2015-07-31 07:20:00,70.9,64.0,30.02,SE,125,2.0,-999.0,79,0.00,,,0.00,94,WeatherHawk,2015-07-31 14:20:00,
2015-07-31 07:25:00,70.9,63.7,30.02,South,187,1.0,-999.0,78,0.00,,,0.00,113,WeatherHawk,2015-07-31 14:25:00,
2015-07-31 07:30:00,71.1,63.8,30.02,South,172,3.0,-999.0,78,0.00,,,0.00,122,WeatherHawk,2015-07-31 14:30:00,
2015-07-31 07:35:00,71.2,64.0,30.02,South,185,3.0,-999.0,78,0.00,,,0.00,117,WeatherHawk,2015-07-31 14:35:00,
2015-07-31 07:40:00,71.2,64.0,30.02,South,187,2.0,-999.0,78,0.00,,,0.00,129,WeatherHawk,2015-07-31 14:40:00,
2015-07-31 07:45:00,71.2,64.0,30.02,South,179,2.0,-999.0,78,0.00,,,0.00,155,WeatherHawk,2015-07-31 14:45:00,
2015-07-31 07:50:00,71.4,64.2,30.02,SE,132,1.0,-999.0,78,0.00,,,0.00,157,WeatherHawk,2015-07-31 14:50:00,
2015-07-31 07:55:00,71.6,64.0,30.02,SW,226,1.0,-999.0,77,0.00,,,0.00,173,WeatherHawk,2015-07-31 14:55:00,
2015-07-31 08:00:00,72.0,64.0,30.02,South,189,1.0,-999.0,76,0.00,,,0.00,234,WeatherHawk,2015-07-31 15:00:00,
2015-07-31 08:05:00,72.1,64.1,30.02,SSE,148,2.0,-999.0,76,0.00,,,0.00,278,WeatherHawk,2015-07-31 15:05:00,
2015-07-31 08:10:00,72.3,63.6,30.02,SSW,197,1.0,-999.0,74,0.00,,,0.00,523,WeatherHawk,2015-07-31 15:10:00,
2015-07-31 08:15:00,72.5,63.7,30.02,SSW,212,5.0,-999.0,74,0.00,,,0.00,369,WeatherHawk,2015-07-31 15:15:00,
2015-07-31 08:20:00,72.1,63.4,30.02,SSE,153,5.0,-999.0,74,0.00,,,0.00,208,WeatherHawk,2015-07-31 15:20:00,
2015-07-31 08:25:00,72.0,63.6,30.02,South,182,2.0,-999.0,75,0.00,,,0.00,266,WeatherHawk,2015-07-31 15:25:00,
2015-07-31 08:30:00,72.1,63.8,30.02,South,170,2.0,-999.0,75,0.00,,,0.00,236,WeatherHawk,2015-07-31 15:30:00,
2015-07-31 08:35:00,72.5,64.1,30.02,SSW,192,2.0,-999.0,75,0.00,,,0.00,462,WeatherHawk,2015-07-31 15:35:00,
2015-07-31 08:40:00,73.4,64.2,30.02,ESE,107,1.0,-999.0,73,0.00,,,0.00,288,WeatherHawk,2015-07-31 15:40:00,
2015-07-31 08:45:00,73.6,63.6,30.02,SSW,194,2.0,-999.0,71,0.00,,,0.00,399,WeatherHawk,2015-07-31 15:45:00,
2015-07-31 08:50:00,73.8,63.8,30.02,South,173,2.0,-999.0,71,0.00,,,0.00,508,WeatherHawk,2015-07-31 15:50:00,
2015-07-31 08:55:00,74.8,64.4,30.02,SSE,164,1.0,-999.0,70,0.00,,,0.00,541,WeatherHawk,2015-07-31 15:55:00,
2015-07-31 09:00:00,76.3,64.5,30.02,SW,218,2.0,-999.0,67,0.00,,,0.00,569,WeatherHawk,2015-07-31 16:00:00,
2015-07-31 09:05:00,76.5,63.8,30.02,East,80,3.0,-999.0,65,0.00,,,0.00,611,WeatherHawk,2015-07-31 16:05:00,
2015-07-31 09:10:00,76.3,64.1,30.02,South,180,1.0,-999.0,66,0.00,,,0.00,534,WeatherHawk,2015-07-31 16:10:00,
2015-07-31 09:15:00,76.1,63.9,30.02,SW,221,2.0,-999.0,66,0.00,,,0.00,573,WeatherHawk,2015-07-31 16:15:00,
2015-07-31 09:20:00,75.7,63.6,30.02,SSE,153,2.0,-999.0,66,0.00,,,0.00,632,WeatherHawk,2015-07-31 16:20:00,
2015-07-31 09:25:00,76.8,63.7,30.01,NE,41,1.0,-999.0,64,0.00,,,0.00,640,WeatherHawk,2015-07-31 16:25:00,
2015-07-31 09:30:00,76.3,63.6,30.01,West,275,3.0,-999.0,65,0.00,,,0.00,624,WeatherHawk,2015-07-31 16:30:00,
2015-07-31 09:35:00,76.6,64.0,30.01,NW,307,1.0,-999.0,65,0.00,,,0.00,606,WeatherHawk,2015-07-31 16:35:00,
2015-07-31 09:40:00,78.3,64.1,30.01,East,98,1.0,-999.0,62,0.00,,,0.00,648,WeatherHawk,2015-07-31 16:40:00,
2015-07-31 09:45:00,78.4,63.9,30.01,SSW,212,1.0,-999.0,61,0.00,,,0.00,701,WeatherHawk,2015-07-31 16:45:00,
2015-07-31 09:50:00,78.4,63.9,30.01,West,277,3.0,-999.0,61,0.00,,,0.00,705,WeatherHawk,2015-07-31 16:50:00,
2015-07-31 09:55:00,78.6,63.6,30.01,NNW,348,5.0,-999.0,60,0.00,,,0.00,707,WeatherHawk,2015-07-31 16:55:00,
2015-07-31 10:00:00,78.3,63.7,30.01,North,354,5.0,-999.0,61,0.00,,,0.00,674,WeatherHawk,2015-07-31 17:00:00,
2015-07-31 10:05:00,78.6,63.6,30.02,North,355,4.0,-999.0,60,0.00,,,0.00,746,WeatherHawk,2015-07-31 17:05:00,
2015-07-31 10:10:00,79.2,63.6,30.01,NW,326,3.0,-999.0,59,0.00,,,0.00,759,WeatherHawk,2015-07-31 17:10:00,
2015-07-31 10:15:00,79.3,63.7,30.01,NW,316,1.0,-999.0,59,0.00,,,0.00,770,WeatherHawk,2015-07-31 17:15:00,
2015-07-31 10:20:00,79.9,63.8,30.01,West,259,1.0,-999.0,58,0.00,,,0.00,793,WeatherHawk,2015-07-31 17:20:00,
2015-07-31 10:25:00,80.2,63.6,30.01,NNW,330,2.0,-999.0,57,0.00,,,0.00,802,WeatherHawk,2015-07-31 17:25:00,
2015-07-31 10:30:00,79.5,63.9,30.01,SW,235,1.0,-999.0,59,0.00,,,0.00,807,WeatherHawk,2015-07-31 17:30:00,
2015-07-31 10:35:00,79.7,63.6,30.01,NW,325,3.0,-999.0,58,0.00,,,0.00,827,WeatherHawk,2015-07-31 17:35:00,
2015-07-31 10:40:00,80.2,63.6,30.01,West,277,4.0,-999.0,57,0.00,,,0.00,844,WeatherHawk,2015-07-31 17:40:00,
2015-07-31 10:45:00,79.9,63.8,30.01,NW,309,4.0,-999.0,58,0.00,,,0.00,848,WeatherHawk,2015-07-31 17:45:00,
2015-07-31 10:50:00,79.5,62.9,30.01,North,354,1.0,-999.0,57,0.00,,,0.00,871,WeatherHawk,2015-07-31 17:50:00,
2015-07-31 10:55:00,79.7,63.1,30.00,NW,317,3.0,-999.0,57,0.00,,,0.00,886,WeatherHawk,2015-07-31 17:55:00,
2015-07-31 11:00:00,80.4,62.7,30.00,SW,229,5.0,-999.0,55,0.00,,,0.00,896,WeatherHawk,2015-07-31 18:00:00,
2015-07-31 11:05:00,80.6,62.9,30.00,NW,319,6.0,-999.0,55,0.00,,,0.00,912,WeatherHawk,2015-07-31 18:05:00,
2015-07-31 11:10:00,80.6,63.4,30.00,SW,229,3.0,-999.0,56,0.00,,,0.00,929,WeatherHawk,2015-07-31 18:10:00,
2015-07-31 11:15:00,81.3,63.1,30.00,West,275,1.0,-999.0,54,0.00,,,0.00,699,WeatherHawk,2015-07-31 18:15:00,
2015-07-31 11:20:00,81.9,62.5,30.00,WSW,255,4.0,-999.0,52,0.00,,,0.00,922,WeatherHawk,2015-07-31 18:20:00,
2015-07-31 11:25:00,82.2,62.3,30.00,WSW,241,2.0,-999.0,51,0.00,,,0.00,895,WeatherHawk,2015-07-31 18:25:00,
2015-07-31 11:30:00,82.4,63.5,30.00,South,177,1.0,-999.0,53,0.00,,,0.00,692,WeatherHawk,2015-07-31 18:30:00,
2015-07-31 11:35:00,83.5,63.4,30.00,North,8,2.0,-999.0,51,0.00,,,0.00,991,WeatherHawk,2015-07-31 18:35:00,
2015-07-31 11:40:00,83.3,63.3,30.00,NNW,345,2.0,-999.0,51,0.00,,,0.00,984,WeatherHawk,2015-07-31 18:40:00,
2015-07-31 11:45:00,83.7,63.6,30.00,North,349,6.0,-999.0,51,0.00,,,0.00,985,WeatherHawk,2015-07-31 18:45:00,
2015-07-31 11:50:00,83.8,63.2,29.99,NW,306,5.0,-999.0,50,0.00,,,0.00,979,WeatherHawk,2015-07-31 18:50:00,
2015-07-31 11:55:00,84.0,63.3,29.99,NNW,342,5.0,-999.0,50,0.00,,,0.00,1029,WeatherHawk,2015-07-31 18:55:00,
2015-07-31 12:00:00,84.6,64.4,29.99,West,268,6.0,-999.0,51,0.00,,,0.00,877,WeatherHawk,2015-07-31 19:00:00,
2015-07-31 12:05:00,83.5,64.0,29.99,West,279,9.0,-999.0,52,0.00,,,0.00,1009,WeatherHawk,2015-07-31 19:05:00,
2015-07-31 12:10:00,83.3,63.8,29.99,WSW,252,3.0,-999.0,52,0.00,,,0.00,980,WeatherHawk,2015-07-31 19:10:00,
2015-07-31 12:15:00,83.5,64.0,29.99,NW,321,3.0,-999.0,52,0.00,,,0.00,1061,WeatherHawk,2015-07-31 19:15:00,
2015-07-31 12:20:00,82.6,63.7,29.99,WNW,285,8.0,-999.0,53,0.00,,,0.00,1060,WeatherHawk,2015-07-31 19:20:00,
2015-07-31 12:25:00,82.4,64.1,29.99,WSW,250,8.0,-999.0,54,0.00,,,0.00,1057,WeatherHawk,2015-07-31 19:25:00,
2015-07-31 12:30:00,81.9,64.1,29.99,WNW,290,7.0,-999.0,55,0.00,,,0.00,1058,WeatherHawk,2015-07-31 19:30:00,
2015-07-31 12:35:00,81.5,63.7,29.99,WSW,258,8.0,-999.0,55,0.00,,,0.00,1062,WeatherHawk,2015-07-31 19:35:00,
2015-07-31 12:40:00,81.5,64.3,29.99,NW,325,5.0,-999.0,56,0.00,,,0.00,993,WeatherHawk,2015-07-31 19:40:00,
2015-07-31 12:45:00,81.9,64.1,29.99,West,268,6.0,-999.0,55,0.00,,,0.00,1085,WeatherHawk,2015-07-31 19:45:00,
2015-07-31 12:50:00,81.7,64.4,29.99,SW,220,2.0,-999.0,56,0.00,,,0.00,1024,WeatherHawk,2015-07-31 19:50:00,
2015-07-31 12:55:00,82.2,63.9,29.99,WNW,288,6.0,-999.0,54,0.00,,,0.00,1101,WeatherHawk,2015-07-31 19:55:00,
2015-07-31 13:00:00,81.3,64.1,29.99,West,259,6.0,-999.0,56,0.00,,,0.00,1085,WeatherHawk,2015-07-31 20:00:00,
2015-07-31 13:05:00,81.3,63.6,29.99,WNW,289,4.0,-999.0,55,0.00,,,0.00,1057,WeatherHawk,2015-07-31 20:05:00,
2015-07-31 13:10:00,81.1,63.9,29.99,NNW,328,8.0,-999.0,56,0.00,,,0.00,1068,WeatherHawk,2015-07-31 20:10:00,
2015-07-31 13:15:00,81.3,63.6,29.98,WNW,289,6.0,-999.0,55,0.00,,,0.00,1107,WeatherHawk,2015-07-31 20:15:00,
2015-07-31 13:20:00,81.3,63.6,29.98,WNW,283,2.0,-999.0,55,0.00,,,0.00,1018,WeatherHawk,2015-07-31 20:20:00,
2015-07-31 13:25:00,81.1,63.4,29.98,NW,309,5.0,-999.0,55,0.00,,,0.00,1118,WeatherHawk,2015-07-31 20:25:00,
2015-07-31 13:30:00,81.1,63.4,29.98,West,276,8.0,-999.0,55,0.00,,,0.00,1055,WeatherHawk,2015-07-31 20:30:00,
2015-07-31 13:35:00,81.0,63.2,29.98,WNW,291,11.0,-999.0,55,0.00,,,0.00,620,WeatherHawk,2015-07-31 20:35:00,
2015-07-31 13:40:00,80.6,63.4,29.98,NW,317,6.0,-999.0,56,0.00,,,0.00,1012,WeatherHawk,2015-07-31 20:40:00,
2015-07-31 13:45:00,81.9,63.6,29.98,NW,309,3.0,-999.0,54,0.00,,,0.00,898,WeatherHawk,2015-07-31 20:45:00,
2015-07-31 13:50:00,81.1,63.4,29.97,West,272,4.0,-999.0,55,0.00,,,0.00,852,WeatherHawk,2015-07-31 20:50:00,
2015-07-31 13:55:00,81.7,63.9,29.97,WNW,294,4.0,-999.0,55,0.00,,,0.00,587,WeatherHawk,2015-07-31 20:55:00,
2015-07-31 14:00:00,82.0,63.7,29.97,WSW,252,5.0,-999.0,54,0.00,,,0.00,598,WeatherHawk,2015-07-31 21:00:00,
2015-07-31 14:05:00,81.9,63.6,29.97,West,262,5.0,-999.0,54,0.00,,,0.00,623,WeatherHawk,2015-07-31 21:05:00,
2015-07-31 14:10:00,81.9,63.6,29.97,WSW,258,8.0,-999.0,54,0.00,,,0.00,691,WeatherHawk,2015-07-31 21:10:00,
2015-07-31 14:15:00,81.9,63.6,29.97,WSW,249,5.0,-999.0,54,0.00,,,0.00,573,WeatherHawk,2015-07-31 21:15:00,
2015-07-31 14:20:00,81.3,63.6,29.97,WSW,250,9.0,-999.0,55,0.00,,,0.00,738,WeatherHawk,2015-07-31 21:20:00,
2015-07-31 14:25:00,81.3,63.6,29.97,NW,311,6.0,-999.0,55,0.00,,,0.00,721,WeatherHawk,2015-07-31 21:25:00,
2015-07-31 14:30:00,81.7,63.9,29.97,WNW,302,2.0,-999.0,55,0.00,,,0.00,817,WeatherHawk,2015-07-31 21:30:00,
2015-07-31 14:35:00,81.3,63.6,29.97,West,278,7.0,-999.0,55,0.00,,,0.00,791,WeatherHawk,2015-07-31 21:35:00,
2015-07-31 14:40:00,81.7,63.4,29.97,NW,311,2.0,-999.0,54,0.00,,,0.00,830,WeatherHawk,2015-07-31 21:40:00,
2015-07-31 14:45:00,80.6,62.9,29.96,NW,320,4.0,-999.0,55,0.00,,,0.00,783,WeatherHawk,2015-07-31 21:45:00,
2015-07-31 14:50:00,80.4,63.8,29.96,West,273,3.0,-999.0,57,0.00,,,0.00,577,WeatherHawk,2015-07-31 21:50:00,
2015-07-31 14:55:00,80.8,63.6,29.96,WNW,293,4.0,-999.0,56,0.00,,,0.00,634,WeatherHawk,2015-07-31 21:55:00,
2015-07-31 15:00:00,80.4,63.3,29.96,West,280,5.0,-999.0,56,0.00,,,0.00,820,WeatherHawk,2015-07-31 22:00:00,
2015-07-31 15:05:00,80.1,63.4,29.96,WSW,253,3.0,-999.0,57,0.00,,,0.00,437,WeatherHawk,2015-07-31 22:05:00,
2015-07-31 15:10:00,79.9,63.3,29.96,WNW,291,5.0,-999.0,57,0.00,,,0.00,386,WeatherHawk,2015-07-31 22:10:00,
2015-07-31 15:15:00,79.7,63.1,29.95,West,279,6.0,-999.0,57,0.00,,,0.00,990,WeatherHawk,2015-07-31 22:15:00,
2015-07-31 15:20:00,80.6,62.9,29.95,WSW,242,4.0,-999.0,55,0.00,,,0.00,473,WeatherHawk,2015-07-31 22:20:00,
2015-07-31 15:25:00,79.5,62.9,29.95,WSW,254,6.0,-999.0,57,0.00,,,0.00,413,WeatherHawk,2015-07-31 22:25:00,
2015-07-31 15:30:00,79.2,62.6,29.95,West,269,6.0,-999.0,57,0.00,,,0.00,613,WeatherHawk,2015-07-31 22:30:00,
2015-07-31 15:35:00,79.3,62.8,29.95,West,263,6.0,-999.0,57,0.00,,,0.00,665,WeatherHawk,2015-07-31 22:35:00,
2015-07-31 15:40:00,79.0,62.9,29.95,West,263,4.0,-999.0,58,0.00,,,0.00,534,WeatherHawk,2015-07-31 22:40:00,
2015-07-31 15:45:00,79.0,62.4,29.95,NW,321,8.0,-999.0,57,0.00,,,0.00,440,WeatherHawk,2015-07-31 22:45:00,
2015-07-31 15:50:00,78.6,62.6,29.95,WNW,293,8.0,-999.0,58,0.00,,,0.00,455,WeatherHawk,2015-07-31 22:50:00,
2015-07-31 15:55:00,77.9,62.4,29.95,NW,304,9.0,-999.0,59,0.00,,,0.00,529,WeatherHawk,2015-07-31 22:55:00,
2015-07-31 16:00:00,77.7,62.2,29.95,NW,305,5.0,-999.0,59,0.00,,,0.00,547,WeatherHawk,2015-07-31 23:00:00,
2015-07-31 16:05:00,78.1,62.6,29.95,NW,322,2.0,-999.0,59,0.00,,,0.00,700,WeatherHawk,2015-07-31 23:05:00,
2015-07-31 16:10:00,77.9,62.4,29.95,SW,234,3.0,-999.0,59,0.00,,,0.00,616,WeatherHawk,2015-07-31 23:10:00,
2015-07-31 16:15:00,77.7,62.2,29.95,WNW,300,6.0,-999.0,59,0.00,,,0.00,524,WeatherHawk,2015-07-31 23:15:00,
2015-07-31 16:20:00,77.5,62.1,29.95,WNW,287,7.0,-999.0,59,0.00,,,0.00,553,WeatherHawk,2015-07-31 23:20:00,
2015-07-31 16:25:00,77.7,62.2,29.95,West,264,5.0,-999.0,59,0.00,,,0.00,522,WeatherHawk,2015-07-31 23:25:00,
2015-07-31 16:30:00,78.3,62.2,29.95,WNW,296,5.0,-999.0,58,0.00,,,0.00,517,WeatherHawk,2015-07-31 23:30:00,
2015-07-31 16:35:00,77.9,62.4,29.95,WNW,293,7.0,-999.0,59,0.00,,,0.00,504,WeatherHawk,2015-07-31 23:35:00,
2015-07-31 16:40:00,77.7,62.2,29.94,WNW,301,4.0,-999.0,59,0.00,,,0.00,528,WeatherHawk,2015-07-31 23:40:00,
2015-07-31 16:45:00,78.1,62.1,29.94,West,276,5.0,-999.0,58,0.00,,,0.00,356,WeatherHawk,2015-07-31 23:45:00,
2015-07-31 16:50:00,78.3,62.2,29.94,West,277,2.0,-999.0,58,0.00,,,0.00,296,WeatherHawk,2015-07-31 23:50:00,